Hourly Weather Barsuki (Ilya)

Today, 8 March, Monday

Time Temperature Precipitation Wind Pressure Humidity
00:00 -7°C° 0 mm 5 mps 736 mmHg 76%
01:00 -7°C° 0 mm 5 mps 736 mmHg 76%
02:00 -8°C° 0 mm 5 mps 736 mmHg 80%
03:00 -7°C° 0 mm 5 mps 736 mmHg 83%
04:00 -7°C° 0 mm 5 mps 736 mmHg 85%
05:00 -7°C° 0 mm 5 mps 736 mmHg 88%
06:00 -7°C° 0.2 mm 5 mps 737 mmHg 88%
07:00 -8°C° 0.2 mm 5 mps 737 mmHg 88%
08:00 -8°C° 0 mm 5 mps 738 mmHg 88%
09:00 -7°C° 0.1 mm 5 mps 739 mmHg 81%
10:00 -7°C° 0.1 mm 5 mps 739 mmHg 73%
11:00 -7°C° 0.1 mm 5 mps 740 mmHg 66%
12:00 -7°C° 0 mm 5 mps 741 mmHg 66%
13:00 -6°C° 0 mm 5 mps 741 mmHg 66%
14:00 -6°C° 0 mm 5 mps 741 mmHg 67%
15:00 -6°C° 0 mm 5 mps 742 mmHg 69%
16:00 -6°C° 0 mm 5 mps 742 mmHg 71%
17:00 -7°C° 0 mm 4 mps 742 mmHg 73%
18:00 -7°C° 0 mm 4 mps 743 mmHg 76%
19:00 -7°C° 0 mm 3 mps 743 mmHg 79%
20:00 -7°C° 0 mm 2 mps 744 mmHg 82%
21:00 -7°C° 0 mm 2 mps 744 mmHg 82%
22:00 -7°C° 0 mm 2 mps 744 mmHg 83%
23:00 -7°C° 0 mm 2 mps 745 mmHg 83%

Tomorrow, 9 March, Tuesday

Time Temperature Precipitation Wind Pressure Humidity
00:00 -8°C° 0 mm 2 mps 745 mmHg 85%
01:00 -8°C° 0 mm 2 mps 746 mmHg 86%
02:00 -7°C° 0 mm 1 mps 746 mmHg 87%
03:00 -8°C° 0 mm 2 mps 746 mmHg 89%
04:00 -9°C° 0 mm 2 mps 746 mmHg 91%
05:00 -9°C° 0 mm 2 mps 747 mmHg 92%
06:00 -9°C° 0 mm 2 mps 747 mmHg 91%
07:00 -9°C° 0 mm 2 mps 748 mmHg 90%
08:00 -10°C° 0 mm 3 mps 748 mmHg 89%
09:00 -9°C° 0 mm 3 mps 748 mmHg 80%
10:00 -8°C° 0 mm 3 mps 749 mmHg 72%
11:00 -7°C° 0 mm 3 mps 749 mmHg 64%
12:00 -6°C° 0 mm 2 mps 749 mmHg 59%
13:00 -5°C° 0 mm 2 mps 749 mmHg 55%
14:00 -4°C° 0 mm 2 mps 749 mmHg 51%
15:00 -4°C° 0 mm 2 mps 749 mmHg 53%
16:00 -3°C° 0 mm 1 mps 749 mmHg 55%
17:00 -3°C° 0 mm 1 mps 749 mmHg 58%
18:00 -3°C° 0 mm 1 mps 749 mmHg 61%
19:00 -4°C° 0 mm 1 mps 749 mmHg 65%
20:00 -7°C° 0 mm 2 mps 750 mmHg 69%
21:00 -7°C° 0 mm 2 mps 750 mmHg 72%
22:00 -7°C° 0 mm 2 mps 750 mmHg 76%
23:00 -7°C° 0 mm 2 mps 750 mmHg 79%

Day after tomorrow, 10 March, Wednesday

Time Temperature Precipitation Wind Pressure Humidity
00:00 -7°C° 0 mm 2 mps 750 mmHg 81%
01:00 -9°C° 0 mm 3 mps 750 mmHg 82%
02:00 -9°C° 0 mm 3 mps 750 mmHg 83%
03:00 -9°C° 0 mm 3 mps 750 mmHg 83%
04:00 -9°C° 0 mm 3 mps 750 mmHg 84%
05:00 -9°C° 0 mm 3 mps 750 mmHg 84%
06:00 -9°C° 0 mm 3 mps 750 mmHg 83%
07:00 -9°C° 0 mm 3 mps 750 mmHg 81%
08:00 -9°C° 0 mm 3 mps 750 mmHg 80%
09:00 -8°C° 0 mm 3 mps 750 mmHg 76%
10:00 -7°C° 0 mm 3 mps 750 mmHg 72%
11:00 -6°C° 0 mm 3 mps 751 mmHg 68%
12:00 -5°C° 0 mm 3 mps 751 mmHg 65%
13:00 -3°C° 0 mm 2 mps 751 mmHg 61%
14:00 -3°C° 0 mm 2 mps 751 mmHg 58%
15:00 -3°C° 0 mm 2 mps 750 mmHg 61%
16:00 -3°C° 0 mm 2 mps 750 mmHg 65%
17:00 -4°C° 0 mm 2 mps 750 mmHg 68%
18:00 -4°C° 0 mm 2 mps 751 mmHg 72%
19:00 -5°C° 0 mm 2 mps 751 mmHg 75%
20:00 -6°C° 0 mm 2 mps 751 mmHg 79%
21:00 -6°C° 0 mm 2 mps 751 mmHg 79%
22:00 -6°C° 0 mm 2 mps 751 mmHg 79%
23:00 -7°C° 0 mm 2 mps 751 mmHg 79%

11 March, Thursday

Time Temperature Precipitation Wind Pressure Humidity
00:00 -7°C° 0 mm 2 mps 752 mmHg 78%
01:00 -7°C° 0 mm 2 mps 752 mmHg 77%
02:00 -7°C° 0 mm 2 mps 752 mmHg 77%
03:00 -7°C° 0 mm 2 mps 752 mmHg 77%
04:00 -8°C° 0 mm 2 mps 752 mmHg 78%
05:00 -7°C° 0 mm 1 mps 751 mmHg 78%
06:00 -8°C° 0 mm 2 mps 752 mmHg 78%
07:00 -7°C° 0 mm 2 mps 752 mmHg 77%
08:00 -7°C° 0 mm 2 mps 752 mmHg 77%
09:00 -7°C° 0 mm 3 mps 752 mmHg 72%
10:00 -7°C° 0 mm 4 mps 752 mmHg 68%
11:00 -4°C° 0 mm 4 mps 751 mmHg 63%
12:00 -4°C° 0 mm 4 mps 751 mmHg 61%
13:00 -3°C° 0 mm 4 mps 751 mmHg 60%
14:00 -4°C° 0 mm 5 mps 751 mmHg 58%
15:00 -4°C° 0 mm 5 mps 750 mmHg 61%
16:00 -5°C° 0 mm 5 mps 750 mmHg 63%
17:00 -4°C° 0 mm 4 mps 749 mmHg 65%
18:00 -6°C° 0 mm 5 mps 749 mmHg 67%
19:00 -6°C° 0 mm 5 mps 749 mmHg 68%
20:00 -8°C° 0 mm 6 mps 749 mmHg 70%
21:00 -8°C° 0 mm 6 mps 748 mmHg 70%
22:00 -8°C° 0 mm 6 mps 748 mmHg 70%
23:00 -8°C° 0 mm 7 mps 748 mmHg 69%

12 March, Friday

Time Temperature Precipitation Wind Pressure Humidity
00:00 -8°C° 0 mm 7 mps 747 mmHg 70%
01:00 -8°C° 0 mm 7 mps 746 mmHg 71%
02:00 -8°C° 0 mm 7 mps 746 mmHg 72%
03:00 -8°C° 0 mm 8 mps 745 mmHg 71%
04:00 -8°C° 0 mm 8 mps 744 mmHg 71%
05:00 -8°C° 0 mm 8 mps 744 mmHg 70%
06:00 -9°C° 0 mm 9 mps 743 mmHg 70%
07:00 -8°C° 0 mm 9 mps 742 mmHg 70%
08:00 -8°C° 0 mm 9 mps 742 mmHg 70%
09:00 -8°C° 0.4 mm 9 mps 741 mmHg 77%
10:00 -8°C° 0.4 mm 9 mps 741 mmHg 83%
11:00 -8°C° 0.4 mm 9 mps 740 mmHg 89%
12:00 -6°C° 0.7 mm 9 mps 740 mmHg 90%
13:00 -5°C° 0.7 mm 9 mps 739 mmHg 91%
14:00 -4°C° 0.7 mm 9 mps 739 mmHg 92%
15:00 -4°C° 0.7 mm 8 mps 738 mmHg 93%
16:00 -3°C° 0.7 mm 7 mps 738 mmHg 95%
17:00 -3°C° 0.7 mm 7 mps 738 mmHg 96%
18:00 -2°C° 0.5 mm 6 mps 738 mmHg 96%
19:00 -2°C° 0.5 mm 6 mps 738 mmHg 97%
20:00 0°C° 0.5 mm 5 mps 739 mmHg 97%
21:00 -1°C° 0.1 mm 5 mps 739 mmHg 95%
22:00 -1°C° 0.1 mm 5 mps 739 mmHg 93%
23:00 -2°C° 0.1 mm 5 mps 740 mmHg 91%

13 March, Saturday

Time Temperature Precipitation Wind Pressure Humidity
00:00 -2°C° 0 mm 4 mps 740 mmHg 91%
01:00 -2°C° 0 mm 4 mps 740 mmHg 92%
02:00 -3°C° 0 mm 4 mps 741 mmHg 92%
03:00 -3°C° 0 mm 4 mps 741 mmHg 92%
04:00 -3°C° 0 mm 4 mps 741 mmHg 92%
05:00 -4°C° 0 mm 4 mps 742 mmHg 92%
06:00 -3°C° 0 mm 4 mps 742 mmHg 91%
07:00 -3°C° 0 mm 4 mps 742 mmHg 89%
08:00 -4°C° 0 mm 5 mps 742 mmHg 88%
09:00 -1°C° 0 mm 5 mps 742 mmHg 87%
10:00 0°C° 0 mm 5 mps 742 mmHg 85%
11:00 +1°C° 0 mm 6 mps 741 mmHg 84%
12:00 +1°C° 0 mm 6 mps 741 mmHg 84%
13:00 +1°C° 0 mm 6 mps 741 mmHg 85%
14:00 +2°C° 0 mm 6 mps 740 mmHg 85%
15:00 +1°C° 0 mm 6 mps 740 mmHg 88%
16:00 +1°C° 0 mm 5 mps 740 mmHg 91%
17:00 +1°C° 0 mm 5 mps 739 mmHg 93%
18:00 0°C° 0.5 mm 4 mps 739 mmHg 95%
19:00 0°C° 0.5 mm 4 mps 739 mmHg 96%
20:00 +1°C° 0.5 mm 3 mps 739 mmHg 98%
21:00 0°C° 0.3 mm 3 mps 739 mmHg 98%
22:00 +1°C° 0.3 mm 2 mps 739 mmHg 98%
23:00 +1°C° 0.3 mm 2 mps 739 mmHg 98%
Show more